Weather History for Point Salines, Grenada

Change the Weather History Date:

Monday, February 25, 2013

  Actual Average Record
Temperature  
Mean Temperature 80 °F -  
Max Temperature 85 °F 83 °F 86 °F (1998)
Min Temperature 75 °F 74 °F 71 °F (2014)
Cooling Degree Days 15    
Growing Degree Days 30 (Base 50)    
Moisture  
Dew Point 72 °F    
Average Humidity 74    
Maximum Humidity 83    
Minimum Humidity 62    
Precipitation  
Precipitation 0.00 in - - ()
Sea Level Pressure  
Sea Level Pressure 29.92 in    
Wind  
Wind Speed 14 mph ()    
Max Wind Speed 23 mph    
Max Gust Speed -    
Visibility 8.1 miles    
Events      
Averages and records for this station are not official NWS values.
T = Trace of Precipitation, MM = Missing Value Source: Averaged Metar Reports

Daily Weather History Graph

Daily Weather History Graph

Search for Another Location

Airport:

Trip Planner

Search our weather history database for the weather conditions in past years. The results will help you decide how hot, cold, wet, or windy it might be!

Date:

Astronomy

Feb. 25, 2013 Rise Set
Actual Time 6:24 AM AST 6:16 PM AST
Civil Twilight 6:03 AM AST 6:37 PM AST
Nautical Twilight 5:38 AM AST 7:02 PM AST
Astronomical Twilight 5:13 AM AST 7:26 PM AST
Moon 6:13 PM AST (2/25) 5:57 AM AST (2/25)
Length of Visible Light 12h 34m
Length of Day
11h 51m
Full, 100% of the Moon is Illuminated
Feb 25
Full
Feb 25
Full
Mar 4
Last Quarter
Mar 11
New
Mar 19
First Quarter

Hourly Weather History & Observations

Time (AST) Temp. Heat Index Dew Point Humidity Pressure Visibility Wind Dir Wind Speed Gust Speed Precip Events Conditions
12:00 AM 77.0 °F - 71.6 °F 83% 29.95 in 6.2 mi East 11.5 mph - N/A   Scattered Clouds
1:00 AM 77.0 °F - 71.6 °F 83% 29.92 in 6.2 mi East 11.5 mph - N/A   Partly Cloudy
2:00 AM 78 °F - 72 °F 76% 29.91 in 14 mi East 11.5 mph - -   Widespread Dust
2:00 AM 78.8 °F - 71.6 °F 78% 29.92 in 6.2 mi East 11.5 mph - N/A   Scattered Clouds
3:00 AM 78.8 °F - 69.8 °F 74% 29.89 in 6.2 mi East 16.1 mph - N/A   Partly Cloudy
4:00 AM 77.0 °F - 69.8 °F 78% 29.89 in 6.2 mi ESE 12.7 mph - N/A   Partly Cloudy
5:00 AM 78 °F - 71 °F 73% 29.91 in 14 mi ESE 17.3 mph - -   Widespread Dust
5:00 AM 78.8 °F - 71.6 °F 78% 29.89 in 6.2 mi ESE 17.3 mph - N/A   Partly Cloudy
6:00 AM 77.0 °F - 71.6 °F 83% 29.92 in 6.2 mi ESE 13.8 mph - N/A   Partly Cloudy
7:00 AM 77.0 °F - 71.6 °F 83% 29.95 in 6.2 mi East 10.4 mph - N/A   Partly Cloudy
8:00 AM 81 °F - 70 °F 63% 29.97 in 8 mi East 17.3 mph - -   Widespread Dust
8:00 AM 80.6 °F 83.9 °F 69.8 °F 70% 29.95 in 6.2 mi East 17.3 mph - N/A   Partly Cloudy
9:00 AM 82.4 °F 87.2 °F 71.6 °F 70% 29.98 in 6.2 mi ESE 20.7 mph - N/A   Partly Cloudy
10:00 AM 82.4 °F 87.2 °F 71.6 °F 70% 29.98 in 6.2 mi ESE 17.3 mph - N/A   Partly Cloudy
11:00 AM 84 °F - - % 29.97 in 15 mi SE 17.3 mph - -   Widespread Dust
11:00 AM 84.2 °F 89.6 °F 71.6 °F 66% 29.95 in 6.2 mi SE 17.3 mph - N/A   Partly Cloudy
12:00 PM 84.2 °F 89.6 °F 71.6 °F 66% 29.95 in 6.2 mi ESE 20.7 mph - N/A   Partly Cloudy
1:00 PM 84.2 °F 89.6 °F 71.6 °F 66% 29.92 in 6.2 mi ESE 23.0 mph - N/A   Partly Cloudy
2:00 PM 83 °F - 72 °F 62% 29.89 in 16 mi SE 23.0 mph - -   Scattered Clouds
2:00 PM 84.2 °F 89.6 °F 71.6 °F 66% 29.89 in 6.2 mi SE 23.0 mph - N/A   Partly Cloudy
3:00 PM 82.4 °F 87.2 °F 71.6 °F 70% 29.86 in 6.2 mi SE 21.9 mph - N/A   Scattered Clouds
4:00 PM 82.4 °F 87.2 °F 71.6 °F 70% 29.86 in 6.2 mi SE 20.7 mph - N/A   Scattered Clouds
5:00 PM 82 °F - 71 °F 62% 29.87 in 14 mi ESE 17.3 mph - -   Scattered Clouds
5:00 PM 82.4 °F 87.2 °F 71.6 °F 70% 29.86 in 6.2 mi ESE 17.3 mph - N/A   Partly Cloudy
6:00 PM 80.6 °F 85.4 °F 73.4 °F 79% 29.86 in 6.2 mi ESE 17.3 mph - N/A   Scattered Clouds
7:00 PM 78.8 °F - 71.6 °F 78% 29.86 in 6.2 mi ESE 11.5 mph - N/A   Partly Cloudy
8:00 PM 78 °F - 71 °F 73% 29.91 in 14 mi East 12.7 mph - -   Widespread Dust
8:00 PM 78.8 °F - 71.6 °F 78% 29.89 in 6.2 mi East 12.7 mph - N/A   Partly Cloudy
9:00 PM 77.0 °F - 71.6 °F 83% 29.92 in 6.2 mi East 11.5 mph - N/A   Partly Cloudy
10:00 PM 78.8 °F - 71.6 °F 78% 29.95 in 6.2 mi East 12.7 mph - N/A   Partly Cloudy
11:00 PM 78 °F - 73 °F 80% 29.96 in 14 mi East 13.8 mph - -   Widespread Dust
11:00 PM 78.8 °F - 73.4 °F 83% 29.95 in 6.2 mi East 13.8 mph - N/A   Partly Cloudy